STARLINK-33829, 63496

Orbit data source: Space-Track

STARLINK-33829, 63496 is a payload satellite in LEO that was launched on Mon, 07 Apr 2025 UTC via an FALCON 9 launch vehicle from the Air Force Western Test Range (AFWTR). Payload-class satellites include a variety of spacecraft equipped with specific instruments for various scientific and technological missions. These include communications satellites like Starlink; space stations such as the ISS; scientific satellites like the Hubble; Earth observation satellites from companies like Planet Labs, Umbra, and HawkEye 360; GPS; miniature CubeSats for education and research; and military/defense satellites.

Loading next visibility...
Identifier
63496, 2025-071D
Orbit
LEO
Last TLE update
18 hours ago
Origin
Manufacturer
SpaceX/Seattle
Mission
Operational Commercial Communications
Bus & Motor
STARLINK V2MO, Unknown motor
Mass
575 kg wet, ~530 kg dry
Launch date (UTC)
2025-04-07 (1 month ago)
Launch vehicle
FALCON 9
Launch site
Air Force Western Test Range (AFWTR)
Object type
Payload
Rocket body
Debris
Shape & HBR
Box + 1 Pan, 29 m
Radar Cross Section
41.120 m², Large (>1 m²)

Expand to show TLE details & history

TLE from 18 hours ago
0 STARLINK-33829
1 63496U 25071D   25139.91667824  .00005438  00000-0  14585-3 0  9992
2 63496  53.1600  68.3078 0001052  97.2684  57.6596 15.39614765  7676
Epoch: 2025-05-19T22:00Z
TLE epoch observation values (Epoch: 2025-05-19T22:00:00.999Z)
Latitude
19.8583°
Longitude
24.87153°
Altitude
447.323 km
Speed
7.647 km/s
True Right ascension
15h 30m 47s
True Declination
19° 44' 37"
Sunlit
Object was in full shadow at epoch
Visualization orbit readout
Latitude
2.31532°
Longitude
-141.33501°
Altitude
447.937 km
Speed
7.645 km/s
Apparent Right ascension
07h 27m 24s
Apparent Declination
-34° 48' 47"
Sunlit
Object is in daylight
Visualization observer readout
Local Sidereal Time
00:56:04
Azimuth
114.231° SE
Elevation
-26.882°
Doppler factor
1
Orbital elements
Apogee altitude
448.223 km
Perigee altitude
446.787 km
Semi-major axis
6,825.642 km
Eccentricity
0.00011
Inclination
53.16°
RAAN
68.3078°
Arg. of periapsis
97.2684°
True anomaly
Unknown
Mean anomaly
57.6596°
Eccentric anomaly
Unknown
Mean motion
3.84882 °/min
Orbital period
93.54 mins
BSTAR
0.00014585
Loading maneuver chart data...
Loading SW <> Apogee altitude chart data...
Loading historical data...
Loading historical data...
Loading historical data...
Loading historical data...
Loading historical data...
Loading historical data...
Loading historical data...

STARLINK-33829 Visibility forecast

Observer location: undefined°, undefined°

Span
Click to sort rows by Start time (UTC) header in descending order
Start Az.
Max El. time (UTC)
Max El. Az.
Max El.
End time (UTC)
End Az.
5 mins2025-05-20 20:51:17.219Z176.427° S2025-05-20 20:53:17.219Z138.055° SSE19.717°2025-05-20 20:56:17.219Z79.028° E
4 mins2025-05-20 22:29:17.219Z273.717° WNW2025-05-20 22:30:17.219Z305.393° NW32.325°2025-05-20 22:33:17.219Z33.232° NE
4 mins2025-05-21 03:24:17.219Z352.554° N2025-05-21 03:25:17.219Z15.964° NNE21.063°2025-05-21 03:28:17.219Z79.541° E
5 mins2025-05-21 05:01:17.219Z290.126° WNW2025-05-21 05:03:17.219Z215.685° SW37.086°2025-05-21 05:06:17.219Z149.901° SSE
|